Statistiken

Seite 338 von 349 |< · · [335] [336] [337] [338] [339] [340] [341] · · >|

Die neuesten Zitate

Nr. Zitat Pkte. Bew. Aufr. Mails Kom. Datum
16851 Das Durchschnittliche gibt der Welt ihren ... 1.4107 112 37775 26 12 04.08.05 18:55
16852 Ein guter Aphorismus ist die Weisheit eines ... 1.4106 151 10393 8 19 04.08.05 18:55
16853 Denk falsch, wenn du magst, aber Denk um ... 1.4091 66 21205 3 9 04.08.05 18:55
16854 Bei der Eroberung des Weltraums sind zwei ... 1.4074 135 14701 17 51 04.08.05 18:55
16855 Derjenige, der etwas zerbricht, um herauszufinden, ... 1.4070 86 14715 7 21 04.08.05 18:55
16856 Es gibt zwei Möglichkeiten, Karriere zu machen: ... 1.4030 201 32563 36 4 04.08.05 18:55
16857 Ich weiß, dass ich nichts weiß. ... 1.4012 501 207317 173 225 04.08.05 18:55
16858 Ein Dutzend verlogener Komplimente ist leichter ... 1.4000 55 13076 4 4 04.08.05 18:55
16859 Es ist einfacher, kritisch zu sein als korrekt. ... 1.4000 55 6599 5 0 04.08.05 18:55
16860 Nicht wenige Experten sehen ihre Daseinsberechtigung ... 1.4000 25 6830 4 5 04.08.05 18:55
16861 Wenn man einen Menschen richtig beurteilen ... 1.3974 78 17225 15 10 04.08.05 18:55
16862 Auch eine Enttäuschung, wenn sie nur gründlich ... 1.3967 184 62492 43 15 04.08.05 18:55
16863 Kein Problem wird gelöst, wenn wir träge ... 1.3963 328 14945 16 6 04.08.05 18:55
16864 Der Beweis von Heldentum liegt nicht im Gewinnen ... 1.3947 76 16033 9 3 04.08.05 18:55
16865 Nicht den Tod sollte man fürchten, sondern ... 1.3945 218 44907 28 17 04.08.05 18:55
16866 Pünktlichkeit ist die Kunst abzuschätzen ... 1.3944 71 15666 10 13 04.08.05 18:55
16867 Der Schwache kann nicht verzeihen. Verzeihen ... 1.3883 291 65935 60 37 04.08.05 18:55
16868 Interessante Selbstgespräche setzen einen ... 1.3871 93 20074 18 12 04.08.05 18:55
16869 Die Bosheit trinkt die Hälfte ihres eigenen Giftes. ... 1.3860 57 8653 5 13 04.08.05 18:55
16870 Die Politik ist das Paradies zungenfertiger Schwätzer. ... 1.3857 70 10381 10 7 04.08.05 18:55
16871 Als die ersten Missionare nach Afrika kamen, ... 1.3846 130 14835 12 7 04.08.05 18:55
16872 Journalisten sind die Geburtshelfer und Totengräber ... 1.3846 26 4122 2 0 04.08.05 18:55
16873 Es hilft nichts, das Recht auf seiner Seite ... 1.3836 73 9043 16 15 04.08.05 18:55
16874 Ausdauer wird früher oder später belohnt ... 1.3804 92 21110 17 25 04.08.05 18:55
16875 Jetzt sind die guten alten Zeiten, nach denen ... 1.3795 195 46299 20 3 04.08.05 18:55
16876 Mit einem kurzen Schweifwedeln kann ein Hund ... 1.3780 127 16454 9 2 04.08.05 18:55
16877 Wenn zwei Philosophen zusammentreffen, ist ... 1.3774 53 8973 3 9 04.08.05 18:55
16878 Wenn du den Wert des Geldes kennenlernen ... 1.3772 114 13057 7 2 04.08.05 18:55
16879 Glaube denen, die die Wahrheit suchen, und ... 1.3750 160 31504 22 44 04.08.05 18:55
16880 Man soll schweigen oder Dinge sagen, die ... 1.3731 67 16238 17 17 04.08.05 18:55
16881 Halte immer an der Gegenwart fest. Jeder ... 1.3727 110 25215 24 8 04.08.05 18:55
16882 Am Anfang gehören alle Gedanken der Liebe. ... 1.3692 195 43185 36 4 04.08.05 18:55
16883 Alte Knaben haben genauso ihr Spielzeug wie ... 1.3678 87 8799 13 3 04.08.05 18:55
16884 Wer eine gute, verständige und schöne Frau ... 1.3673 147 28182 23 16 04.08.05 18:55
16885 Meine Pünktlichkeit drückt aus, dass mir ... 1.3667 90 18771 8 9 04.08.05 18:55
16886 Ein kluger Mann macht nicht alle Fehler selbst. ... 1.3665 161 29491 28 13 04.08.05 18:55
16887 Für den gläubigen Menschen steht Gott am ... 1.3647 85 14059 5 19 04.08.05 18:55
16888 Die Einkommensteuer hat mehr Menschen zu ... 1.3636 44 7874 5 5 04.08.05 18:55
16889 Gibt es eine bessere Form mit dem Leben fertig ... 1.3615 130 33734 40 20 04.08.05 18:55
16890 Jeder Mensch macht Fehler. Das Kunststück ... 1.3608 97 27675 15 6 04.08.05 18:55
16891 Wenn sich die Gäste wie zu Hause fühlen, ... 1.3607 61 15355 5 29 04.08.05 18:55
16892 Der Mensch ist frei geboren, und liegt doch ... 1.3596 114 39850 14 17 04.08.05 18:55
16893 Frauen sind Wesen, die uns mit dem Wunsch ... 1.3596 114 19395 16 14 04.08.05 18:55
16894 In Deutschland ist die höchste Form der Anerkennung ... 1.3590 156 20774 43 10 04.08.05 18:55
16895 Sicher verdanken einige Millionäre ihren ... 1.3590 78 9809 9 2 04.08.05 18:55
16896 Wahre Freundschaft ist eine sehr langsam wachsende Pflanze. ... 1.3558 104 31973 8 7 04.08.05 18:55
16897 Man schließt die Augen der Toten behutsam; ... 1.3542 48 18885 1 8 04.08.05 18:55
16898 Ein Zyniker ist ein Mensch, der die Dinge ... 1.3540 226 11371 18 5 04.08.05 18:55
16899 Ich bin durchaus nicht zynisch, ich habe ... 1.3529 68 16268 11 6 04.08.05 18:55
16900 Ein Buch ist ein Spiegel, wenn ein Affe hineinsieht, ... 1.3500 240 33296 19 7 04.08.05 18:55

[Favoriten] [Punkte] [Bewertungen] [Aufrufe] [Mails] [Kommentare] [Datum]

Seite 338 von 349 |< · < · [1] [2] [3] [4] [5] [6] [7] [8] [9] [10] [11] [12] [13] [14] [15] [16] [17] [18] [19] [20] [21] [22] [23] [24] [25] [26] [27] [28] [29] [30] [31] [32] [33] [34] [35] [36] [37] [38] [39] [40] [41] [42] [43] [44] [45] [46] [47] [48] [49] [50] [51] [52] [53] [54] [55] [56] [57] [58] [59] [60] [61] [62] [63] [64] [65] [66] [67] [68] [69] [70] [71] [72] [73] [74] [75] [76] [77] [78] [79] [80] [81] [82] [83] [84] [85] [86] [87] [88] [89] [90] [91] [92] [93] [94] [95] [96] [97] [98] [99] [100] [101] [102] [103] [104] [105] [106] [107] [108] [109] [110] [111] [112] [113] [114] [115] [116] [117] [118] [119] [120] [121] [122] [123] [124] [125] [126] [127] [128] [129] [130] [131] [132] [133] [134] [135] [136] [137] [138] [139] [140] [141] [142] [143] [144] [145] [146] [147] [148] [149] [150] [151] [152] [153] [154] [155] [156] [157] [158] [159] [160] [161] [162] [163] [164] [165] [166] [167] [168] [169] [170] [171] [172] [173] [174] [175] [176] [177] [178] [179] [180] [181] [182] [183] [184] [185] [186] [187] [188] [189] [190] [191] [192] [193] [194] [195] [196] [197] [198] [199] [200] [201] [202] [203] [204] [205] [206] [207] [208] [209] [210] [211] [212] [213] [214] [215] [216] [217] [218] [219] [220] [221] [222] [223] [224] [225] [226] [227] [228] [229] [230] [231] [232] [233] [234] [235] [236] [237] [238] [239] [240] [241] [242] [243] [244] [245] [246] [247] [248] [249] [250] [251] [252] [253] [254] [255] [256] [257] [258] [259] [260] [261] [262] [263] [264] [265] [266] [267] [268] [269] [270] [271] [272] [273] [274] [275] [276] [277] [278] [279] [280] [281] [282] [283] [284] [285] [286] [287] [288] [289] [290] [291] [292] [293] [294] [295] [296] [297] [298] [299] [300] [301] [302] [303] [304] [305] [306] [307] [308] [309] [310] [311] [312] [313] [314] [315] [316] [317] [318] [319] [320] [321] [322] [323] [324] [325] [326] [327] [328] [329] [330] [331] [332] [333] [334] [335] [336] [337] [338] [339] [340] [341] [342] [343] [344] [345] [346] [347] [348] [349] · > · >|

Zuletzt gesucht

Buchtipps

Gymnasial-, Schul- und Studien
Wolfgang Lückert
Gymnasial-, Schul- und Studienplaner 201
EUR 8,95
Schulplaner 2019 2020 Schüler:
Papeterie Collectif
Schulplaner 2019 2020 Schüler: Gymnasial
EUR 7,90